sat.trackr.live / text

‹ back to catalog

STARLINK-6194

NORAD 57077 · 2023-088AF

PAYLOAD ACTIVE UNKNOWN

§ Identity

Operator
Country
US
Launch date
2023-06-22
Launch site
AFWTR
Launch vehicle
Mass (kg)
RCS (m²)

Purposes: comms

External: N2YO · Heavens-Above · Gunter

§ Orbital elements

Epoch: 2026-05-25T01:04:19.182144Z

Period
94.27 min
Inclination
43.0037°
Eccentricity
0.0000933
Mean motion
15.27575243 rev/d
Perigee alt
482.4 km
Apogee alt
483.7 km
Semi-major
6,861.2 km
B*
1.2688e-5
RAAN
25.2798°
Arg perigee
266.5837°
Mean anomaly
93.4908°
Rev number
16,233

§ Raw data

STARLINK-61941 57077U 23088AF  26145.04466646  .00000087  00000+0  12688-4 0  99942 57077  43.0037  25.2798 0000933 266.5837  93.4908 15.27575243162339

JSON: /api/v1/satellites/57077 · /tle

For live sub-satellite position, see the globe view (requires WebGL).

§ Visibility from observer

Set your observer location to see the next 7 days of passes ≥ 10°. The values pass through the URL so the page stays shareable.

No JS? Fill the form by hand. The geolocation button needs JavaScript.